www.pogodaiklimat.ru

Погода и климат >> Архив погоды >> Индия >> Kozhikode


ПОГОДА в Kozhikode

  • Прогноз погоды в Kozhikode
  • Монитор погоды в Kozhikode
  • Климат города

АРХИВ ПОГОДЫ в Kozhikode

Время (UTC), дата Ветер
(напр.,м/с)
 
Видим.   Явления Облачность Т
(С)
Тd
(С)
f
(%)
Тe
(С)
Тes
(С)
Комфортность P
(гПа)
Po
(гПа)
Тmin
(С)
Tmax
(С)
R
(мм)
R24
(мм)
S
(см)
12 12.07 штиль 0 10 км в посл. час дождь 10/5 600 м
[Sc diur, vesp Ac As]
+26.0 +23.1 84 +35 +35 очень
душно
1007.0 1007.0 +30.2 8
15 12.07 штиль 0 4000 м {дождь} 10/5 600 м
[Sc diur, vesp Ac As]
+24.6 +24.6 100 +34 +34 очень
душно
1008.7 1009.0 14
18 12.07 штиль 0 4000 м в посл. час дождь 10/5 300 м
[Sc diur, vesp Ac As]
+24.6 +24.6 100 +34 +34 очень
душно
1009.5 1010.0 18
21 12.07 штиль 0 4000 м в посл. час дождь 10/5 300 м
[Sc diur, vesp Ac As]
+24.0 +24.0 100 +33 +33 очень
душно
1008.0 1008.0 25
00 13.07 штиль 0 4000 м в посл. час дождь 10/5 600 м
[Sc diur, vesp Ac As]
+24.0 +24.0 100 +33 +33 очень
душно
1006.6 1007.0 38
03 13.07 штиль 0 4000 м слабый дождь 10/5 300 м
[Frnb As trans]
+24.6 -0.2 100 +23 +25 комфорт 1008.1 1008.0 +23.4 +30.2 53
06 13.07 штиль 0 10 км в посл. час дождь 10/10 600 м
[]
+25.4 +25.4 100 +37 +37 очень
душно
1009.3 1009.0 11
09 13.07 штиль 0 10 км в посл. час дождь 9/4 600 м
[Sc diur, vesp Ac As Ci sp]
+26.4 +25.5 95 +39 +46 очень
душно
1007.7 1008.0 13
12 13.07 штиль 0 10 км {дождь} 9/4 600 м
[Sc diur, vesp Ac As Ci sp]
+27.0 +25.2 100 +25 +26 комфорт 1006.5 1007.0 +27.6 14
15 13.07 С 2 4000 м в посл. час дождь 10/4 600 м
[Sc diur, vesp Ac As]
+25.0 +24.7 98 +35 +35 очень
душно
1008.5 1009.0 25
18 13.07 штиль 0 4000 м {дождь} 10/5 600 м
[Sc diur, vesp Ac As]
+24.8 +24.5 98 +35 +35 очень
душно
1009.6 1010.0 27
21 13.07 штиль 0 4000 м 10/4 600 м
[Sc diur, vesp Ac As]
+24.2 +23.9 98 +33 +33 очень
душно
1007.6 1008.0 27
00 14.07 штиль 0 4000 м {дождь} 10/5 600 м
[Sc diur, vesp Ac As]
+24.6 +24.3 98 +34 +34 очень
душно
1007.0 1007.0 29
03 14.07 штиль 0 4000 м слабый дождь 10/5 300 м
[Sc diur, vesp Ac As]
+24.6 -0.1 98 +23 +25 комфорт 1008.2 1008.0 +23.4 +27.6 35
06 14.07 С 1 10 км {дождь} 9/4 600 м
[Sc diur, vesp Ac As Ci sp]
+28.4 +27.3 94 +45 +54 опасность
перегрева
1008.5 1009.0 1
09 14.07 З 1 10 км 9/4 600 м
[Sc diur, vesp Ac trans Ci sp]
+31.2 +27.3 80 +50 +56 опасность
перегрева
1007.5 1008.0 1
12 14.07 З 2 4000 м в посл. час дождь 10/5 300 м
[Frnb Ac As]
+25.0 -0.2 85 +23 +24 комфорт 1006.4 1006.0 +32.0 8
15 14.07 штиль 0 4000 м 9/4 600 м
[Sc diur, vesp Ac As Ci sp]
+25.2 +24.6 96 +35 +35 очень
душно
1007.9 1008.0 8
18 14.07 штиль 0 4000 м 9/4 600 м
[Sc diur, vesp Ac As Ci sp]
+25.2 +24.9 98 +36 +36 очень
душно
1008.5 1009.0 8
21 14.07 штиль 0 4000 м 9/4 600 м
[Sc diur, vesp Ac As Ci sp]
+25.0 +24.7 98 +35 +35 очень
душно
1006.2 1006.0 8
00 15.07 штиль 0 4000 м {дождь} 9/4 600 м
[Sc diur, vesp Ac As Ci sp]
+24.4 +24.1 98 +34 +34 очень
душно
1006.1 1006.0 13
03 15.07 З 1 10 км 10/5 600 м
[Sc diur, vesp Ac As]
+25.2 +25.0 100 +24 +25 комфорт 1007.6 1008.0 +23.0 +32.0 13
06 15.07 ЮЗ 5 4000 м слабый дождь 10/5 600 м
[Frnb Ac As]
+26.6 +25.5 94 +39 +41 очень
душно
1008.3 1008.0 4
09 15.07 ЮЗ 1 10 км в посл. час дождь 10/5 600 м
[Sc diur, vesp As trans]
+25.0 +23.5 91 +34 +37 очень
душно
1006.6 1007.0 16
12 15.07 штиль 0 10 км {дождь} 10/4 600 м
[Sc diur, vesp Ac As Ci sp]
+27.0 +22.6 100 +25 +26 комфорт 1006.1 1006.0 +27.4 16
15 15.07 штиль 0 2000 м слабый дождь 10/5 600 м
[Sc diur, vesp As trans]
+23.6 +22.7 95 +31 +31 очень
душно
1008.6 1009.0 28
18 15.07 штиль 0 4000 м {дождь} 10/5 600 м
[Sc diur, vesp Ac As]
+23.6 +23.6 100 +32 +32 очень
душно
1008.9 1009.0 29
21 15.07 ЮЗ 3 4000 м в посл. час дождь 10/5 600 м
[Sc diur, vesp Ac As]
+23.0 +23.0 100 +32 +32 очень
душно
1006.7 1007.0 32
00 16.07 штиль 0 4000 м {дождь} 10/5 600 м
[Sc diur, vesp Ac As]
+23.6 +23.6 100 +32 +32 очень
душно
1006.6 1007.0 32
03 16.07 ЮЗ 5 10 км в посл. час дождь 10/5 300 м
[Frnb As trans]
+24.6 +24.3 98 +35 +35 очень
душно
1008.9 1009.0 +22.4 +27.4 32
06 16.07 ЮЗ 3 4000 м слабый дождь 10/5 300 м
[Sc diur, vesp As trans]
+25.0 +24.4 96 +35 +38 очень
душно
1009.3 1009.0 2
09 16.07 штиль 0 4000 м в посл. час дождь 10/5 300 м
[Sc diur, vesp As trans]
+24.0 +23.4 96 +32 +37 очень
душно
1008.3 1008.0 8
12 16.07 штиль 0 4000 м {дождь} 9/4 300 м
[Sc diur, vesp Ac As Ci sp]
+26.2 +22.8 100 +24 +25 комфорт 1007.0 1007.0 +26.6 8
15 16.07 СЗ 2 4000 м в посл. час дождь 10/4 300 м
[Frnb As trans]
+24.0 +22.5 91 +31 +31 очень
душно
1009.2 1009.0 16
18 16.07 штиль 0 4000 м в посл. час дождь 9/4 300 м
[Sc diur, vesp Ac As Ci sp]
+24.0 +22.5 91 +31 +31 очень
душно
1009.8 1010.0 18
21 16.07 штиль 0 4000 м слабый дождь 9/4 600 м
[Sc diur, vesp Ac As]
+23.6 +23.0 96 +31 +31 очень
душно
1008.6 1009.0 19
00 17.07 штиль 0 4000 м в посл. час дождь 10/4 300 м
[Sc diur, vesp Ac As]
+23.6 +23.0 96 +31 +31 очень
душно
1008.9 1009.0 22
03 17.07 штиль 0 4000 м 10/4 300 м
[Sc diur, vesp Ac As]
+25.0 -0.1 93 +23 +25 комфорт 1009.8 1010.0 +22.8 +26.6 22
06 17.07 СЗ 2 10 км 9/3 600 м
[Sc diur, vesp Ac As Ci sp]
+28.6 +26.6 89 +44 +53 опасность
перегрева
1009.4 1009.0
09 17.07 З 1 4000 м слабый дождь {ливн. осадки} 10/5 300 м
[Sc diur, vesp Ac As]
+26.2 +24.3 89 +36 +39 очень
душно
1008.4 1008.0 12
12 17.07 штиль 0 4000 м в посл. час дождь {ливн. осадки} 9/4 300 м
[Sc diur, vesp Ac As Ci sp]
+25.0 +24.3 100 +23 +24 комфорт 1007.8 1008.0 +30.2 17
15 17.07 штиль 0 2000 м слабый дождь {ливн. осадки} 10/5 600 м
[Sc diur, vesp Ac As]
+25.0 +25.0 100 +36 +36 очень
душно
1008.6 1009.0 25
18 17.07 штиль 0 2000 м сильный дождь 10/5 600 м
[Sc diur, vesp Ac As]
+24.6 +24.6 100 +34 +34 очень
душно
1010.6 1011.0 43
21 17.07 штиль 0 2000 м слабый дождь 10/5 600 м
[Sc diur, vesp As trans]
+23.0 +23.0 100 +32 +32 очень
душно
1009.3 1009.0 87
00 18.07 штиль 0 2000 м слабый дождь 10/5 600 м
[Sc diur, vesp As trans]
+22.6 +22.6 100 +31 +31 очень
душно
1009.3 1009.0
03 18.07 штиль 0 4000 м слабый дождь 10/5 300 м
[Sc diur, vesp As trans]
+23.2 +17 +17 1010.5 1011.0 +21.6 +30.2
06 18.07 штиль 0 4000 м слабый дождь 10/5 600 м
[Sc diur, vesp As trans]
+25.0 +25.0 100 +36 +41 очень
душно
1010.0 1010.0 8
09 18.07 штиль 0 10 км {дождь} 10/4 600 м
[Sc diur, vesp Ac As Ci sp]
+28.0 +25.2 85 +41 +47 опасность
перегрева
1008.0 1008.0 8
12 18.07 штиль 0 10 км {дождь} 10/5 600 м
[Sc diur, vesp Ac As]
+25.4 +25.2 100 +24 +24 комфорт 1007.8 1008.0 +28.7 9
15 18.07 штиль 0 4000 м в посл. час дождь 10/5 600 м
[Sc diur, vesp Ac As]
+25.0 +25.0 100 +36 +36 очень
душно
1009.5 1010.0 10
18 18.07 штиль 0 4000 м в посл. час дождь 10/5 600 м
[Sc diur, vesp Ac As]
+24.6 +24.6 100 +34 +34 очень
душно
1010.5 1011.0 16
21 18.07 штиль 0 2000 м слабый дождь 10/5 600 м
[Sc diur, vesp As trans]
+23.6 +23.6 100 +32 +32 очень
душно
1008.7 1009.0 34
00 19.07 штиль 0 2000 м слабый дождь 10/5 600 м
[Sc diur, vesp As trans]
+23.0 +23.0 100 +32 +32 очень
душно
1009.0 1009.0 52
03 19.07 штиль 0 4000 м слабый дождь 10/5 600 м
[Sc diur, vesp As trans]
1009.9 1010.0 +22.6 +28.7 66
06 19.07 штиль 0 4000 м слабый дождь 10/5 600 м
[Sc diur, vesp As trans]
+25.2 +25.2 100 +36 +42 очень
душно
1010.0 1010.0 8

 

Местоположение метеостанции Kozhikode (Kerala, Индия): широта 11.25 долгота 75.78 высота над уровнем моря 5 м.

В архиве по умолчанию представлена погода в Kozhikode за последнюю неделю. Архивные данные за месяц целиком и за предыдущие месяцы, начиная с января 2011 года, Вы можете получить, выбрав интересующий диапазон дат из раскрывающегося списка и нажав кнопку "Ввод!".


*Определитесь, кто Вы:
робот инопланетянин человек

Внимание! Время в таблицах - всемирное. Для получения местного времени необходимо прибавить поправку, которая в Kozhikode равна 5.5 ч.

Смотрите также архив погоды в соседних городах и на ближайших метеорологических станциях:

Погода в Karipur (Kerala, Индия) (23 км)
Погода в Cannanore (Kerala, Индия) (81 км)
Погода в Thrissur (Kerala, Индия) (94 км)
Погода в Udhagamandalam (Tamil Nadu, Индия) (105 км)
Погода в Palakkad (Kerala, Индия) (109 км)
Погода в Coonoor (Tamil Nadu, Индия) (112 км)
Погода в Madikeri (Karnataka, Индия) (130 км)
Погода в Kochi (Kerala, Индия) (140 км)
Погода в Coimbatore (Tamil Nadu, Индия) (141 км)
Погода в Chamarajnagar (Karnataka, Индия) (146 км)

Пояснения к столбцам:

Ветер - указаны скорость ветра в м/с - средняя за 10 мин, порывы в срок и между сроками (в фигурных скобках) и направление, откуда дует ветер: С - северный, СВ - северо-восточный, В - восточный, ЮВ - юго-восточный, Ю - южный, ЮЗ - юго-западный, З - западный, СЗ - северо-западный.
Видимость - горизонтальная дальность видимости в метрах или километрах. При видимости от 1 до 10 км при отсутствии осадков обычно наблюдается дымка, при ухудшении видимости до 1 км и менее - туман. В сухую погоду видимость может ухудшаться дымом, пылью или мглою.
Явления - указаны атмосферные явления, наблюдавшиеся в срок или в последний час перед сроком; фигурными скобками обозначены явления, наблюдавшиеся между сроками (за 1-3 часа до срока); квадратными скобками обозначены град или гололедные отложения с указанием их диаметра в мм.
Облачность - указаны через наклонную черту общая и нижняя облачность в баллах и высота нижней границы облаков в метрах; квадратными скобками обозначены формы облаков: Ci - перистые, Cs - перисто-слоистые, Cc - перисто-кучевые, Ac - высококучевые, As - высокослоистые, Sc - слоисто-кучевые, Ns - слоисто-дождевые, Cu - кучевые, Cb - кучево-дождевые. Подробнее классификацию облаков см. в Атласе облаков (PDF).
T - Температура воздуха - температура, измеренная на высоте 2 м над землей.
Td - Температура точки росы - температура, при понижении до которой содержащийся в воздухе водяной пар достигнет насыщения.
f - Относительная влажность воздуха - влажноcть воздуха, измеренная на высоте 2 м над землей.
Te - Эффективная температура - температура, которую ощущает одетый по сезону человек в тени. Характеристика душности погоды. При расчете учитывается влияние влажности воздуха и скорости ветра на теплоощущения человека.
Tes - Эффективная температура на солнце - температура, которую ощущает человек, с поправкой на солнечный нагрев. Характеристика знойности погоды. Зависит от высоты солнца над горизонтом, облачности и скорости ветра. Ночью, в пасмурную погоду, а также при ветре 12 м/с и более поправка равна нулю.
P - Атмосферное давление - приведенное к уровню моря атмосферное давление.
Po - Атмосферное давление - измеренное на уровне метеостанции атмосферное давление.
Tmin - Минимальная температура - минимум температуры воздуха на высоте 2 м над землей.
Tmax - Максимальная температура - максимум температуры воздуха на высоте 2 м над землей.
R - Количество осадков - Количество выпавших осадков за период времени, мм. При наведении курсора мыши на число - период времени, за который выпало указанное количество осадков.
R24 - Количество осадков - Количество выпавших осадков за 24 часа, мм.
S - Снежный покров - Высота снежного покрова, см. При наведении курсора мыши на число - состояние снежного покрова и степень покрытия местности в баллах.